Wind_Speed
16 13 10 15 8 8 16 19 21 20 6 3 11 6 13 15 9 13 14 10 18 20 26 25 23 21 20 18 16 14 14 13 12 11 8 8 10 12 12 12 13 13 11 8 8 9 10 11 10
14 10 12 14 11 13 15 21 21 16 13 6 5 5 10 8 20 15 16 17 18 20 26 26 23 20 20 19 16 15 15 15 13 11 9 8 10 12 12 11 12 11 9 7 7 8 10 10 9
12 12 15 7 15 17 17 21 17 10 10 3 2 6 8 17 11 13 21 22 21 21 27 26 24 21 20 18 17 16 17 16 14 12 9 9 10 11 10 11 11 9 8 6 7 7 8 8 7
6 6 12 13 21 22 25 25 24 10 2 7 5 2 11 5 7 11 18 21 19 22 25 26 25 23 21 20 18 17 18 18 16 12 10 9 10 12 11 11 11 9 6 6 7 7 7 7 6
14 12 10 16 24 26 23 28 28 7 12 3 7 4 9 10 12 14 20 22 20 22 22 27 26 25 24 22 21 20 20 19 16 13 11 10 9 11 12 12 11 9 7 7 7 7 6 6 6
16 20 14 18 23 24 24 34 31 7 7 13 8 8 10 13 13 17 21 20 19 22 21 28 28 27 26 25 24 23 22 21 18 15 13 11 10 12 13 13 12 11 9 9 8 7 6 5 5
20 14 18 22 22 22 23 29 20 20 17 18 12 16 8 12 18 17 22 21 23 23 20 29 29 28 27 26 25 26 24 21 18 17 15 13 12 13 15 14 14 13 11 9 9 8 7 7 6
25 14 24 22 19 25 24 25 29 32 13 16 19 9 6 6 16 6 5 19 20 23 20 30 30 29 28 27 25 24 24 22 19 17 15 14 13 15 16 15 14 13 11 10 9 8 8 8 8
24 15 17 25 25 19 23 21 19 9 11 21 22 22 9 4 2 18 18 12 21 22 21 23 30 30 29 28 27 26 24 22 20 18 16 15 15 16 17 16 15 14 12 10 9 9 9 9 8
20 16 26 22 21 22 22 24 29 8 10 21 21 16 16 2 9 17 21 31 29 27 26 26 27 30 25 21 26 25 24 23 21 19 17 16 15 15 17 16 16 14 13 12 11 9 9 10 10
28 23 20 24 32 29 18 19 15 10 13 17 15 20 22 19 16 23 31 28 24 28 29 29 29 25 27 25 23 26 25 23 22 19 17 16 16 13 13 15 15 15 15 14 13 11 11 12 11
24 29 28 29 31 15 14 17 16 17 14 20 16 19 18 9 11 18 19 23 18 23 31 36 34 30 30 31 22 23 23 24 24 21 18 18 18 19 14 18 11 6 8 11 11 10 6 7 7
25 23 29 28 26 29 14 19 18 24 22 21 21 21 20 11 12 17 18 13 22 13 25 22 17 32 33 25 19 21 21 20 17 17 18 18 22 18 18 18 14 14 7 7 7 9 12 13 15
26 27 24 29 27 24 21 19 22 25 23 22 22 24 25 20 18 20 21 15 23 20 26 31 34 20 29 16 18 17 23 16 16 21 16 19 17 19 14 16 20 19 16 13 13 12 12 15 15
27 18 22 20 24 24 20 23 25 27 25 26 28 24 27 26 18 19 18 14 11 11 16 32 35 26 12 17 10 20 21 20 19 21 22 17 22 17 17 13 11 11 11 14 18 19 18 22 20
19 21 21 20 20 26 22 23 20 27 28 30 29 28 29 28 25 22 23 8 2 4 12 20 24 33 34 19 15 18 17 23 24 24 21 16 14 18 21 20 18 17 17 17 17 17 15 16 16
17 18 23 23 24 23 25 22 18 23 20 21 25 28 28 28 30 29 29 12 8 9 10 15 26 22 31 23 24 21 24 22 23 21 20 18 18 21 17 15 17 23 20 21 18 12 13 17 16
20 21 20 20 22 19 20 19 15 18 16 17 17 20 25 28 27 29 29 16 15 18 14 14 13 12 15 14 22 1 15 20 17 20 28 28 33 12 26 17 14 11 15 8 3 4 8 11 14
22 22 22 18 21 20 17 14 17 20 21 22 19 18 20 25 26 33 28 21 18 17 20 23 20 18 15 11 12 12 13 13 10 7 2 15 18 2 5 20 14 6 1 4 6 8 9 10 15
24 25 23 18 22 11 13 14 16 17 17 19 14 16 18 23 26 31 29 24 24 18 16 15 13 20 19 12 12 5 11 9 7 10 12 13 14 10 7 6 4 3 8 10 10 14 15 14 12
23 24 19 14 8 9 9 13 17 17 18 14 11 10 14 19 25 29 32 31 27 18 16 13 11 7 7 5 3 4 5 9 8 8 6 5 3 6 11 8 11 11 13 13 10 8 11 15 18
23 22 19 12 12 13 18 14 20 21 18 13 14 11 16 22 26 29 29 34 28 23 21 15 13 10 6 10 8 6 12 8 12 12 5 5 11 11 8 10 10 8 7 6 7 9 13 16 22
20 19 18 16 13 12 16 10 15 10 14 15 12 16 15 21 27 30 33 31 25 26 25 17 17 13 11 5 9 15 12 9 10 7 9 8 6 5 7 7 7 9 10 12 14 17 20 24 26
16 17 19 16 14 14 18 16 15 4 16 16 17 20 18 14 19 19 20 28 23 18 14 17 18 19 17 15 16 18 14 16 14 10 6 5 3 1 6 7 9 13 15 18 22 25 27 29 31
19 17 9 12 12 13 16 17 13 12 5 7 16 21 20 16 11 11 33 23 18 14 13 13 21 19 21 21 20 18 17 18 17 15 10 9 9 6 5 11 15 20 24 28 31 32 34 35 37
23 17 12 17 14 14 20 19 12 14 13 6 5 18 21 18 19 14 17 23 19 16 11 8 11 15 18 20 19 15 15 14 9 12 11 9 10 12 15 20 23 27 30 33 36 38 40 40 39
20 20 21 17 9 5 7 6 6 2 12 8 12 11 18 15 20 20 16 19 21 16 15 12 10 10 9 12 12 13 13 11 10 11 12 15 18 21 22 25 29 31 34 36 37 39 39 37 36
23 20 18 14 16 11 12 14 7 8 14 13 14 14 18 23 27 24 19 21 20 17 15 14 11 10 9 7 6 5 6 9 12 13 16 19 21 23 26 29 32 34 35 34 35 35 34 30 30
16 16 13 9 12 6 6 5 5 3 10 15 17 20 20 25 28 27 24 21 18 15 13 12 8 6 5 3 2 5 7 10 13 16 18 20 24 26 28 30 31 31 32 30 29 31 34 34 32
22 20 18 7 13 12 6 3 9 12 4 12 19 23 23 27 24 22 20 18 16 14 13 10 8 5 3 2 1 5 9 12 14 18 20 23 25 26 28 29 29 29 29 28 29 31 28 28 28
Wind_Direction
249 247 266 279 258 229 252 253 247 268 244 28 70 360 332 312 55 112 142 118 164 163 158 157 160 162 163 165 166 169 170 168 159 149 142 135 138 137 135 135 133 130 126 120 116 116 116 111 103
235 250 252 265 250 250 247 242 259 270 99 70 358 285 247 75 92 124 124 153 175 164 161 160 162 165 165 167 172 177 178 174 166 160 154 147 144 146 144 140 138 133 131 129 128 129 127 117 111
225 200 248 235 238 244 256 257 237 274 80 96 228 257 322 89 66 112 131 161 172 165 167 163 162 164 166 168 173 180 182 177 172 169 163 153 150 154 151 149 147 146 145 146 148 142 138 134 126
213 232 236 249 244 234 245 269 288 260 186 260 241 290 233 133 118 137 148 161 152 166 170 165 164 164 167 167 169 179 182 178 177 177 172 163 157 160 155 157 163 164 166 170 168 160 156 153 150
214 230 228 234 239 252 252 247 261 274 247 282 228 240 282 121 138 140 151 162 154 156 173 167 167 166 168 169 167 174 180 179 181 184 180 175 170 170 168 169 175 180 186 185 181 176 178 180 187
212 227 243 234 244 241 247 264 278 224 271 270 274 252 252 134 144 150 154 160 159 164 177 171 170 170 171 170 168 173 179 181 185 187 187 184 184 183 182 181 183 186 189 191 192 193 197 202 212
235 222 233 247 255 244 240 238 254 260 242 251 248 267 138 170 156 155 160 166 164 171 186 176 176 174 175 173 172 174 177 185 189 191 190 191 192 192 192 191 192 191 193 195 199 205 212 222 231
228 249 249 238 249 255 263 246 223 237 220 242 258 271 247 81 158 81 162 169 172 171 177 180 181 180 178 176 177 181 182 185 188 191 194 196 198 195 195 198 200 199 201 202 207 216 223 231 240
224 242 244 246 248 247 260 273 258 167 221 242 241 232 224 97 222 195 235 266 181 180 190 185 185 185 183 182 180 184 187 185 186 192 198 198 197 194 195 201 203 207 210 212 216 227 238 247 254
225 228 239 248 255 260 264 261 265 211 220 244 249 240 224 194 216 153 185 215 190 184 186 189 193 187 177 188 187 187 189 188 190 195 197 197 195 192 201 201 213 216 220 222 227 238 251 259 269
225 238 242 243 258 269 277 296 297 265 238 244 235 245 246 238 233 198 184 198 205 192 193 191 195 185 174 186 186 187 190 192 196 199 199 195 176 196 192 216 221 223 227 230 237 243 267 269 268
231 231 243 261 269 267 278 280 289 285 257 250 262 249 238 199 224 227 242 229 214 206 190 193 194 183 176 197 195 195 193 196 199 201 202 191 179 189 205 203 227 222 254 229 250 246 269 274 275
233 237 238 245 258 268 252 256 256 259 259 261 267 267 261 212 226 264 270 290 245 231 205 139 190 180 170 193 196 185 191 194 195 201 207 191 182 201 200 194 209 236 241 231 230 231 241 247 256
240 236 242 244 249 243 258 251 247 247 254 253 249 253 259 268 228 246 272 273 267 277 228 243 298 231 175 172 183 185 188 193 188 206 219 198 197 200 214 203 204 210 202 221 235 242 237 250 256
259 254 244 245 242 255 240 250 243 247 248 240 242 242 253 264 254 240 261 287 295 275 271 267 224 30 193 202 185 199 197 191 187 208 212 223 202 202 202 213 219 212 223 229 233 230 237 246 259
243 244 251 228 238 238 235 248 246 240 237 239 241 235 234 248 254 245 256 195 13 278 178 220 231 231 184 191 212 207 204 203 198 198 190 215 219 215 208 205 207 219 221 221 218 232 239 257 278
224 235 233 248 242 220 218 241 246 250 253 232 226 235 232 230 238 238 247 192 150 123 161 165 193 200 210 220 219 211 213 205 223 214 211 187 215 221 226 214 222 221 222 222 228 248 263 271 286
215 226 240 238 234 228 217 221 240 258 248 235 233 233 231 229 234 236 236 183 163 139 143 148 168 162 172 238 245 302 213 227 235 254 273 245 257 249 263 265 265 270 258 205 334 254 271 303 311
243 230 221 239 262 189 209 249 235 227 225 244 222 216 236 225 230 232 216 177 168 157 150 141 153 151 153 148 170 187 217 232 238 243 43 249 290 360 194 256 282 217 0 37 244 247 252 267 281
235 251 247 218 216 218 207 231 250 241 243 236 233 212 220 220 230 231 199 189 152 153 143 135 132 147 139 153 142 222 229 258 254 192 200 196 202 204 218 221 186 178 204 230 252 268 284 293 308
229 240 248 258 177 245 238 254 252 253 247 225 221 231 231 214 217 228 190 183 189 157 160 160 143 156 168 205 32 304 288 270 254 244 204 213 150 152 177 190 211 220 244 255 266 283 295 295 298
225 226 244 230 241 234 209 242 236 221 222 200 197 208 212 214 208 215 196 187 190 196 188 183 170 175 213 214 222 267 241 247 270 273 169 180 191 194 209 222 243 239 238 268 283 281 276 284 288
231 213 228 243 248 253 260 267 278 163 199 183 184 191 215 200 188 196 214 193 194 198 199 198 218 230 245 241 211 244 212 195 215 182 213 228 244 251 259 266 260 268 285 295 295 294 291 285 279
211 237 210 218 228 231 236 252 260 268 195 192 178 191 200 199 189 193 180 177 176 187 201 219 221 230 236 212 225 214 189 171 176 180 192 212 277 296 342 331 303 290 296 297 294 291 289 284 283
215 216 202 215 226 235 227 236 251 136 248 320 166 172 191 153 83 142 133 140 156 160 176 192 203 209 212 206 212 203 201 184 182 185 179 201 207 200 242 257 266 287 293 296 296 294 289 286 283
206 204 222 204 213 224 224 229 247 182 175 123 148 166 165 131 129 122 127 141 148 157 144 161 182 183 197 200 201 197 185 193 210 215 225 252 264 276 283 290 291 292 292 293 295 292 292 291 287
199 212 225 259 285 302 270 219 86 221 124 152 145 142 126 141 126 123 129 138 138 144 145 142 131 126 140 166 181 194 202 221 235 257 269 283 289 292 293 295 291 291 292 291 291 292 292 290 291
223 201 216 233 237 222 237 222 160 214 165 177 151 155 152 138 130 128 134 128 132 136 135 142 136 145 142 149 149 217 241 262 269 281 285 291 293 291 292 294 295 297 296 296 296 293 294 290 284
222 233 216 241 232 182 237 269 322 184 339 330 162 155 139 138 132 131 125 124 128 132 136 135 138 117 94 96 241 260 263 276 284 287 291 288 289 291 291 291 292 293 296 294 293 289 291 292 293
219 217 203 222 253 230 181 182 314 291 229 2 354 150 146 135 133 137 134 140 140 138 134 135 133 127 106 84 288 290 289 287 285 286 285 289 290 292 295 298 297 299 296 294 290 296 293 293 291
Height
1505 1508 1510 1512 1512 1495 1491 1474 1453 1448 1454 1450 1453 1458 1459 1458 1459 1482 1480 1482 1478 1481 1485 1489 1494 1498 1502 1506 1509 1512 1515 1518 1520 1522 1525 1526 1527 1529 1531 1532 1534 1535 1537 1539 1541 1542 1543 1545 1546
1504 1508 1512 1507 1505 1500 1483 1460 1455 1445 1449 1456 1459 1459 1461 1463 1463 1471 1474 1481 1478 1481 1485 1489 1493 1497 1501 1505 1509 1512 1515 1518 1521 1523 1525 1527 1528 1530 1531 1533 1535 1537 1538 1540 1542 1543 1544 1546 1547
1503 1506 1509 1500 1496 1494 1479 1451 1444 1445 1450 1456 1459 1460 1461 1464 1467 1472 1476 1478 1478 1479 1483 1487 1492 1496 1500 1503 1507 1511 1514 1517 1521 1523 1524 1526 1528 1530 1532 1534 1536 1538 1540 1541 1543 1544 1545 1547 1548
1504 1506 1505 1494 1488 1475 1469 1452 1447 1450 1456 1458 1458 1458 1462 1463 1468 1472 1477 1479 1477 1481 1483 1486 1489 1493 1498 1502 1505 1509 1513 1516 1519 1522 1524 1525 1527 1529 1531 1534 1536 1538 1540 1541 1543 1544 1546 1547 1548
1502 1498 1494 1487 1482 1471 1459 1452 1449 1450 1456 1455 1456 1457 1460 1465 1468 1471 1477 1479 1480 1484 1484 1487 1489 1491 1494 1498 1501 1505 1509 1513 1517 1520 1522 1525 1527 1528 1530 1532 1535 1538 1540 1541 1543 1544 1546 1547 1548
1497 1494 1489 1485 1475 1463 1459 1453 1450 1453 1455 1459 1457 1460 1460 1466 1469 1471 1474 1478 1482 1484 1485 1486 1487 1488 1490 1492 1496 1500 1504 1509 1512 1516 1520 1522 1525 1527 1529 1531 1533 1536 1538 1540 1542 1543 1545 1546 1547
1489 1483 1483 1476 1467 1458 1453 1452 1451 1451 1455 1459 1460 1458 1463 1465 1466 1472 1473 1475 1475 1476 1479 1484 1487 1488 1490 1491 1494 1497 1501 1506 1510 1513 1516 1519 1521 1524 1528 1530 1532 1534 1536 1538 1540 1542 1543 1544 1545
1488 1482 1476 1467 1466 1459 1446 1443 1445 1448 1453 1460 1459 1458 1461 1464 1466 1470 1477 1480 1481 1475 1475 1481 1486 1490 1491 1493 1495 1498 1501 1504 1508 1511 1514 1515 1518 1520 1524 1528 1530 1533 1535 1536 1538 1540 1541 1542 1543
1484 1480 1473 1466 1460 1454 1447 1443 1440 1444 1452 1456 1454 1458 1463 1463 1466 1476 1469 1459 1477 1479 1474 1478 1482 1488 1490 1491 1492 1496 1500 1503 1506 1510 1512 1513 1515 1518 1520 1525 1528 1531 1532 1534 1535 1538 1539 1539 1540
1474 1471 1466 1459 1454 1449 1445 1443 1441 1443 1450 1454 1453 1455 1459 1462 1463 1469 1468 1470 1469 1472 1474 1475 1478 1484 1489 1491 1494 1497 1499 1501 1504 1507 1510 1512 1513 1515 1518 1521 1524 1527 1530 1531 1533 1535 1536 1537 1538
1466 1460 1459 1457 1454 1448 1444 1443 1443 1443 1450 1451 1453 1457 1457 1458 1459 1459 1459 1459 1462 1466 1470 1476 1479 1484 1486 1486 1487 1491 1495 1500 1504 1506 1509 1510 1511 1514 1516 1518 1520 1522 1526 1528 1530 1531 1533 1534 1534
1462 1458 1460 1457 1451 1449 1447 1449 1448 1449 1451 1452 1452 1453 1453 1454 1456 1457 1456 1456 1458 1461 1460 1468 1469 1475 1479 1480 1484 1487 1491 1496 1500 1502 1505 1507 1510 1511 1513 1514 1518 1519 1522 1524 1526 1527 1529 1530 1530
1452 1452 1453 1453 1451 1449 1451 1451 1453 1453 1454 1454 1452 1451 1451 1455 1458 1458 1458 1457 1462 1458 1465 1461 1471 1476 1473 1480 1485 1483 1485 1489 1496 1499 1501 1504 1506 1510 1512 1513 1515 1516 1518 1521 1523 1525 1527 1527 1526
1448 1448 1447 1449 1447 1448 1449 1450 1452 1452 1454 1453 1453 1452 1452 1452 1454 1460 1459 1460 1457 1456 1463 1448 1430 1466 1478 1486 1488 1492 1491 1492 1496 1498 1500 1502 1506 1508 1511 1512 1512 1514 1516 1519 1521 1522 1523 1523 1523
1444 1443 1442 1440 1444 1442 1445 1445 1443 1448 1449 1449 1451 1451 1451 1451 1453 1456 1458 1458 1455 1455 1455 1447 1460 1448 1481 1491 1495 1497 1495 1493 1496 1499 1497 1506 1509 1510 1512 1512 1513 1514 1515 1518 1519 1519 1519 1521 1524
1441 1441 1443 1435 1437 1438 1442 1442 1437 1439 1440 1442 1444 1446 1448 1450 1451 1454 1456 1456 1455 1455 1457 1463 1457 1462 1483 1486 1493 1498 1492 1490 1493 1495 1498 1504 1511 1510 1509 1511 1509 1510 1510 1512 1513 1516 1516 1517 1523
1437 1443 1440 1437 1426 1428 1431 1437 1432 1433 1432 1433 1437 1440 1442 1446 1448 1452 1453 1452 1455 1455 1461 1463 1465 1469 1475 1482 1486 1482 1495 1493 1492 1499 1498 1494 1501 1501 1502 1504 1506 1502 1505 1506 1509 1511 1513 1512 1515
1436 1439 1432 1427 1415 1409 1421 1426 1427 1426 1426 1426 1430 1434 1437 1439 1443 1448 1450 1449 1452 1456 1456 1462 1464 1465 1467 1478 1478 1462 1496 1496 1494 1499 1498 1501 1492 1478 1491 1501 1502 1498 1499 1488 1496 1505 1508 1510 1510
1422 1420 1422 1417 1408 1409 1419 1422 1419 1419 1422 1422 1423 1428 1432 1434 1439 1443 1446 1449 1451 1456 1459 1461 1463 1465 1469 1474 1482 1488 1491 1491 1490 1494 1490 1481 1473 1485 1492 1507 1501 1497 1501 1497 1504 1507 1507 1509 1510
1421 1418 1409 1402 1400 1408 1412 1419 1415 1414 1413 1415 1417 1421 1426 1431 1434 1436 1441 1448 1453 1457 1459 1461 1463 1468 1470 1477 1477 1485 1486 1486 1491 1494 1496 1495 1493 1497 1502 1502 1503 1497 1501 1504 1504 1505 1504 1505 1508
1417 1417 1410 1406 1400 1403 1411 1421 1415 1408 1407 1409 1414 1418 1420 1424 1428 1430 1436 1443 1451 1453 1458 1462 1465 1467 1470 1473 1472 1480 1484 1487 1491 1492 1493 1493 1494 1498 1498 1499 1501 1500 1504 1504 1502 1501 1501 1502 1503
1414 1405 1405 1406 1412 1423 1408 1430 1403 1398 1400 1403 1409 1415 1417 1418 1423 1427 1431 1437 1446 1449 1456 1459 1462 1464 1469 1471 1472 1476 1482 1487 1484 1485 1485 1487 1492 1497 1497 1498 1501 1500 1498 1497 1495 1498 1499 1501 1501
1403 1399 1407 1407 1411 1415 1413 1421 1398 1386 1396 1399 1404 1410 1413 1415 1419 1424 1427 1432 1439 1449 1454 1458 1459 1462 1466 1470 1470 1473 1477 1479 1485 1479 1481 1486 1490 1491 1495 1492 1493 1492 1492 1490 1491 1493 1495 1497 1495
1396 1401 1402 1408 1413 1428 1417 1417 1405 1394 1389 1390 1395 1404 1409 1411 1415 1420 1422 1430 1440 1447 1453 1455 1456 1458 1462 1465 1468 1471 1469 1473 1480 1480 1483 1486 1491 1487 1488 1486 1486 1485 1487 1488 1488 1489 1489 1491 1490
1395 1405 1421 1429 1425 1424 1405 1412 1399 1391 1392 1387 1390 1398 1405 1410 1415 1418 1422 1435 1440 1446 1449 1450 1452 1455 1459 1460 1468 1469 1470 1474 1478 1481 1482 1484 1484 1485 1483 1482 1481 1482 1484 1483 1483 1483 1484 1484 1483
1392 1399 1411 1427 1425 1415 1396 1406 1392 1385 1389 1393 1394 1395 1403 1410 1417 1425 1431 1436 1443 1448 1450 1453 1454 1454 1456 1459 1465 1468 1469 1472 1475 1477 1479 1481 1482 1481 1479 1478 1479 1480 1480 1478 1477 1477 1477 1475 1475
1389 1396 1391 1401 1399 1424 1397 1391 1391 1388 1388 1395 1398 1399 1404 1411 1418 1427 1433 1438 1444 1450 1454 1457 1458 1460 1459 1460 1465 1469 1469 1473 1474 1476 1476 1477 1477 1478 1476 1475 1477 1475 1473 1472 1471 1470 1469 1468 1465
1377 1382 1403 1396 1421 1429 1405 1397 1415 1399 1394 1396 1400 1403 1406 1412 1420 1430 1437 1442 1447 1453 1457 1459 1462 1465 1465 1464 1467 1468 1470 1472 1473 1474 1476 1475 1474 1475 1472 1470 1469 1465 1466 1466 1464 1464 1462 1460 1459
1381 1385 1385 1389 1393 1417 1426 1422 1415 1409 1407 1415 1397 1402 1407 1413 1420 1430 1439 1446 1451 1456 1459 1462 1465 1467 1467 1466 1467 1469 1471 1471 1472 1473 1472 1471 1471 1468 1466 1465 1464 1461 1460 1461 1459 1457 1454 1452 1451
1370 1376 1387 1407 1406 1391 1407 1424 1416 1413 1415 1411 1404 1400 1408 1416 1424 1433 1441 1449 1454 1457 1462 1465 1467 1469 1469 1470 1470 1470 1470 1471 1471 1469 1469 1467 1466 1463 1461 1457 1456 1453 1454 1454 1453 1449 1449 1445 1445